Location: Coed Ely
(51.5661°N, 3.4150°W)
Time: 19:16:40
(UTC+00:00)

CZ-4C R/B - Pass Details

Date: 28 January 2021
Orbit: 617 x 1385 km, 63.4° (Epoch: 27 February)

Event Time Altitude Azimuth Distance (km) Brightness Sun altitude
Rises 21:36:45 0° 314° (NW) 3,698 6.3 -42.6°
Reaches altitude 10° 21:39:10 10° 316° (NW) 2,852 5.5 -43.0°
Enters shadow 21:42:10 30° 320° (NW) 1,882 4.3 -43.4°
